Tracking 34305 objects as of 6-Jun-2026
HD Live streaming from Space Station
objects crossing your sky now

GLOBALSTAR M058

Track GLOBALSTAR M058 now!
10-day predictions
GLOBALSTAR M058 is classified as:


NORAD ID: 25907
Int'l Code: 1999-049A
Perigee: 1,716.3 km
Apogee: 1,720.7 km
Inclination: 52.0 °
Period: 120.7 minutes
Semi major axis: 8089 km
RCS: 2.4031 m2 (large)
Launch date: September 22, 1999
Source: Globalstar (GLOB)
Launch site: TYURATAM MISSILE AND SPACE COMPLEX (TTMTR)
Your satellite tracking list
Your tracking list is empty




NASA's NSSDC Master Catalog

Two Line Element Set (TLE):
1 25907U 99049A   26156.98579446 -.00000140  00000-0 -74474-3 0  9992
2 25907  51.9937 244.4257 0002729 227.1943 132.8663 11.93215260583774
Source of the keplerian elements: AFSPC